sat.trackr.live / text

‹ back to catalog

STARLINK-36849

NORAD 68304 · 2026-057L

PAYLOAD ACTIVE UNKNOWN

§ Identity

Operator
Country
US
Launch date
2026-03-20
Launch site
AFWTR
Launch vehicle
Mass (kg)
RCS (m²)

Purposes: comms

External: N2YO · Heavens-Above · Gunter

§ Orbital elements

Epoch: 2026-05-25T02:22:25.448160Z

Period
91.41 min
Inclination
97.2851°
Eccentricity
0.0001192
Mean motion
15.75251158 rev/d
Perigee alt
343.1 km
Apogee alt
344.7 km
Semi-major
6,722.1 km
B*
1.2782e-3
RAAN
271.3439°
Arg perigee
61.8427°
Mean anomaly
298.2958°
Rev number
1,031

§ Raw data

STARLINK-368491 68304U 26057L   26145.09890565  .00195459  00000+0  12782-2 0  99952 68304  97.2851 271.3439 0001192  61.8427 298.2958 15.75251158 10313

JSON: /api/v1/satellites/68304 · /tle

For live sub-satellite position, see the globe view (requires WebGL).

§ Visibility from observer

Set your observer location to see the next 7 days of passes ≥ 10°. The values pass through the URL so the page stays shareable.

No JS? Fill the form by hand. The geolocation button needs JavaScript.